Terminal Aerodrome Forecast
Issued by NWS

Home | Current Version | Previous Version | Graphics & Text | Print | Product List | Glossary On
Versions: 1 2 3 4 5 6 7 8 9 10 11 12 13 14 15 16 17 18 19 20 21 22 23 24 25 26 27 28 29 30 31 32 33 34 35 36 37 38 39 40 41 42 43 44 45 46 47 48 49 50
000
FTUS43 KLOT 181100
TAFGYY
TAF
KGYY 181120Z 1812/1912 04005KT P6SM SCT010 SCT020
      TEMPO 1812/1815 5SM BR SCT007 BKN010
     FM181500 04007KT P6SM SCT007 BKN015
     FM181800 05010KT P6SM FEW025 SCT250
     FM190100 07005KT P6SM SCT250
     FM190900 15006KT P6SM SKC=

USA.gov is the U.S. government's official web portal to all federal, state and local government web resources and services.